Location: Georgenberg
(48.1500°N, 16.2500°E)
Time: 03:34:31
(UTC+01:00)

N. Korean satellite - Pass Details

Date: 03 December 2022
Orbit: 408 x 444 km, 97.3° (Epoch: 28 January)

Event Time Altitude Azimuth Distance (km) Brightness Sun altitude
Rises 17:07:37 0° 198° (SSW) 2,452 10.8 -10.4°
Reaches altitude 10° 17:09:59 10° 215° (SW) 1,596 10.1 -10.8°
Maximum altitude 17:12:40 21° 267° (W) 1,088 9.4 -11.2°
Drops below altitude 10° 17:15:24 10° 318° (NW) 1,629 9.5 -11.6°
Sets 17:17:50 0° 335° (NNW) 2,518 10.3 -12.0°
